Theta_e
351 358 366 366 365 366 366 365 364 365 363 361 362 363 360 361 361 360 360 360 360 362 359 359 359 360 360 360 361 362 362 364 363 363 360 361 360 360 362 364 366 358 366
354 359 367 367 366 366 366 366 367 365 365 362 362 362 362 360 360 359 358 359 358 358 357 358 359 360 360 361 360 361 361 363 363 363 362 359 359 360 362 359 364 359 363
354 358 362 366 367 365 366 366 366 364 363 363 362 360 360 360 359 358 358 359 357 357 357 358 358 360 358 359 359 360 359 360 360 360 361 355 355 358 361 362 362 360 361
353 355 359 366 366 366 364 366 365 362 362 362 362 361 360 360 360 359 359 357 355 355 358 358 360 359 359 359 359 359 357 355 356 356 349 344 344 358 361 361 362 360 359
349 353 360 367 367 364 366 365 364 363 363 362 361 361 361 360 359 359 358 355 355 357 359 359 359 358 358 356 358 356 354 355 354 349 342 340 342 345 359 361 359 359 359
349 353 363 366 363 363 363 365 363 363 362 362 362 361 361 360 359 358 358 357 359 359 360 361 358 357 356 356 356 356 354 358 353 348 341 343 340 346 358 360 363 362 360
349 353 356 363 363 364 363 361 361 363 363 362 362 362 361 360 360 360 360 360 361 360 359 359 358 356 355 356 357 357 357 358 356 355 341 340 344 354 359 361 361 360 360
347 348 352 360 362 362 362 361 361 363 362 362 362 362 362 360 360 361 361 361 360 360 361 358 356 355 355 356 356 355 357 357 355 354 352 354 358 363 359 360 360 359 360
347 349 352 352 359 361 362 361 361 361 361 362 363 361 361 361 361 362 362 362 361 360 359 357 356 356 356 357 357 356 356 355 352 353 353 350 362 364 360 360 361 360 360
350 349 351 353 356 356 358 363 360 360 361 361 363 362 362 361 362 362 364 364 362 361 359 358 358 358 360 362 361 360 358 358 353 353 352 352 362 364 361 360 361 360 360
349 352 351 351 358 360 361 360 360 360 360 361 362 362 363 359 359 358 364 363 361 360 360 360 360 363 364 363 364 361 357 354 352 351 353 359 362 362 361 362 360 363 363
345 351 352 355 356 360 356 359 361 358 357 359 358 362 361 363 362 358 363 364 361 362 362 364 359 358 356 354 359 357 352 355 355 352 352 361 363 360 360 361 360 360 362
345 346 352 362 357 357 355 358 360 357 357 361 365 362 362 356 358 358 360 356 356 361 356 359 357 345 354 355 357 354 353 346 350 351 353 360 361 359 359 359 361 358 361
349 348 353 356 358 358 357 354 358 359 360 356 359 365 361 361 356 354 353 350 353 356 356 359 356 356 359 357 357 354 349 340 343 353 355 361 361 361 360 360 362 361 360
348 350 352 356 362 366 364 354 357 355 356 354 360 360 360 354 356 359 359 358 359 360 358 355 349 354 357 353 359 357 355 350 354 355 354 360 359 360 360 360 362 360 360
347 351 350 355 362 361 362 360 360 356 354 356 354 356 360 357 360 356 360 354 357 353 352 355 358 350 343 349 351 358 356 358 359 359 356 356 361 361 360 360 361 363 363
348 350 351 350 357 361 363 362 362 358 355 350 354 360 362 361 364 366 358 355 356 354 355 354 351 354 349 351 354 350 354 360 361 361 358 358 358 362 363 363 364 364 365
349 349 353 349 354 355 356 360 358 356 353 354 355 357 360 362 364 365 357 358 369 367 360 352 352 349 352 350 351 348 347 359 361 362 358 357 358 356 362 364 364 365 365
349 351 348 353 354 354 360 361 360 365 358 358 364 355 360 361 362 364 362 363 353 350 350 344 344 348 352 347 345 347 353 355 353 357 360 357 360 358 356 362 364 365 365
350 352 350 354 359 357 362 363 361 354 361 358 355 362 359 359 361 364 363 358 366 358 358 356 360 360 358 354 350 350 351 349 357 354 356 349 356 360 358 357 361 361 364
350 352 350 357 358 353 354 354 356 354 355 354 354 364 362 362 362 370 365 361 366 361 355 360 361 358 355 359 347 348 346 343 349 353 354 353 355 356 359 357 357 357 358
350 352 353 358 358 355 356 356 353 356 360 357 352 358 358 359 365 362 367 353 363 362 356 362 365 360 357 351 353 342 337 333 343 350 351 354 352 350 343 361 363 359 356
349 352 356 356 360 360 359 357 361 362 362 358 355 356 359 359 360 365 369 364 366 365 349 353 361 365 354 354 358 352 339 334 341 346 349 351 356 344 341 352 361 364 362
351 353 356 358 360 359 361 357 357 349 348 352 354 357 355 361 362 360 364 369 368 365 365 363 360 361 359 350 355 347 359 354 343 340 343 345 349 349 350 357 352 361 362
350 353 357 360 361 360 359 358 355 351 353 355 356 352 356 358 361 359 364 366 368 366 361 362 353 352 359 357 355 347 352 351 357 347 335 339 341 348 353 352 353 358 360
349 350 355 359 361 361 362 360 355 351 352 356 355 357 356 355 357 359 359 364 367 364 365 362 357 354 360 361 360 354 351 345 344 341 341 341 339 343 345 347 347 355 360
Wind_Speed
16 16 15 14 14 13 13 12 13 13 13 12 12 12 12 11 12 11 11 10 9 9 7 5 5 5 7 7 7 9 9 10 10 11 12 13 12 10 8 11 16 14 14
20 17 17 16 15 14 14 14 13 13 13 12 12 11 12 10 9 9 8 7 7 7 6 6 5 6 7 7 7 6 7 7 8 9 11 10 9 9 6 6 9 13 13
21 18 16 15 16 14 13 14 14 14 13 12 12 11 10 9 8 7 6 5 5 5 5 5 6 6 6 6 7 7 6 4 4 8 10 5 3 7 9 14 19 16 12
20 18 17 15 15 15 13 13 14 12 12 11 11 12 11 9 8 7 6 4 3 4 5 5 7 6 6 6 7 9 4 2 1 0 12 10 9 5 8 13 14 15 13
19 18 17 15 15 14 14 12 12 12 11 10 11 10 10 9 8 7 5 3 3 4 5 6 7 5 5 4 6 5 2 4 4 20 19 14 13 6 7 12 13 13 13
21 20 17 16 15 14 13 12 12 12 11 11 9 9 9 9 8 7 5 5 5 5 7 7 6 4 3 3 3 3 6 7 2 15 16 19 12 12 9 9 14 13 12
17 20 16 15 13 12 12 11 12 11 12 10 9 10 10 8 7 7 7 7 7 7 7 6 5 3 3 4 4 6 8 10 5 7 17 13 6 15 13 10 12 12 10
20 19 14 13 13 11 11 11 11 10 10 10 9 8 9 8 8 8 8 9 8 7 6 5 4 3 4 4 5 4 7 8 11 7 12 11 14 14 12 8 9 10 11
20 16 12 12 11 11 10 10 9 10 10 9 10 9 9 8 9 9 9 9 9 7 6 4 3 4 4 5 6 6 7 2 8 5 13 8 13 12 12 10 10 11 11
15 14 13 11 10 8 8 10 9 9 10 10 10 10 9 10 10 10 10 9 8 6 6 6 6 6 9 9 9 10 8 8 7 8 4 10 17 16 13 12 11 11 10
9 6 8 15 11 8 9 8 9 9 10 10 9 10 8 8 10 12 9 11 9 9 9 9 8 8 10 12 10 9 8 3 5 5 2 18 18 16 14 14 11 9 10
11 9 5 11 9 8 9 9 7 8 8 7 7 8 6 4 7 10 10 10 10 11 11 11 1 9 15 6 6 3 5 7 9 8 6 17 17 16 14 12 11 10 10
13 9 10 4 9 8 8 7 5 5 6 4 5 6 8 7 4 6 6 6 6 11 6 9 8 6 13 10 6 9 2 11 4 3 10 18 17 16 14 12 10 8 9
13 14 9 11 9 9 6 5 4 4 4 4 7 6 3 3 5 4 6 8 7 5 8 7 1 10 10 12 9 11 19 9 6 3 8 16 16 15 15 14 12 11 9
16 13 15 12 7 3 3 6 4 4 3 4 6 7 4 5 3 1 2 2 3 2 3 9 7 8 11 17 8 7 13 17 10 4 4 13 13 12 13 13 13 13 11
14 15 13 13 11 6 3 8 3 3 3 6 5 5 6 4 2 3 2 4 4 9 12 8 7 7 13 10 10 13 7 6 5 6 7 8 11 12 12 12 12 12 12
10 12 10 9 14 9 5 5 4 3 5 1 2 6 3 4 3 4 4 5 5 9 10 1 8 6 13 4 5 8 12 3 5 2 5 5 7 13 14 13 13 12 12
15 12 11 9 15 11 5 5 5 4 3 7 3 7 5 4 5 4 5 4 3 1 8 5 4 4 8 8 11 6 4 4 6 4 7 6 8 7 11 13 13 12 13
14 13 10 8 12 13 7 5 5 3 3 3 1 6 6 5 7 5 4 2 2 3 3 1 4 5 3 5 4 4 2 6 16 7 2 5 10 10 7 13 14 14 16
17 12 12 11 9 10 8 6 4 4 2 3 4 2 7 5 7 5 2 6 2 6 7 4 5 4 5 5 8 4 5 10 6 9 9 6 6 8 8 8 7 8 15
20 18 13 10 10 8 7 6 2 3 3 3 3 7 7 5 5 5 3 6 1 4 5 2 3 6 7 4 5 4 4 9 6 2 7 8 5 5 11 9 7 5 7
17 16 13 12 12 10 7 7 5 5 3 3 3 5 7 5 4 6 2 5 6 4 5 6 2 3 3 4 1 4 4 7 5 6 8 7 13 6 12 4 8 9 7
20 17 13 12 12 11 11 7 4 4 3 1 3 4 6 6 6 5 2 4 4 2 4 7 5 3 2 4 3 2 3 2 3 5 7 5 4 5 9 10 3 9 9
20 19 18 16 14 12 10 7 8 8 7 6 6 5 4 8 7 7 5 5 3 3 1 5 5 5 4 4 3 4 0 5 4 1 3 2 6 11 11 8 9 6 5
17 19 18 17 15 13 13 9 8 7 7 6 4 7 6 8 8 8 7 6 4 4 5 3 7 12 5 5 4 3 4 1 2 1 2 4 5 3 5 5 7 6 5
15 15 14 16 15 14 13 13 10 10 9 6 7 6 6 7 8 9 9 6 5 5 5 2 7 16 4 4 4 5 4 5 2 1 2 4 3 3 1 2 3 7 5
Wind_Direction
130 128 126 125 120 115 110 116 129 124 122 123 115 109 106 100 95 95 94 88 81 75 77 94 85 73 70 72 73 74 83 88 94 102 101 104 108 115 121 120 100 90 85
130 132 132 129 122 115 110 107 127 124 125 129 125 124 122 114 107 102 101 94 82 73 75 90 94 82 77 82 72 93 99 106 121 117 116 112 120 121 102 94 90 101 94
130 132 133 129 122 116 115 111 115 127 124 130 129 137 135 130 125 119 112 107 85 72 76 97 105 96 94 97 97 84 71 118 139 139 115 32 91 116 101 106 112 113 110
135 140 134 130 126 123 119 120 121 125 124 126 129 140 145 143 140 135 129 113 80 86 98 107 103 99 104 91 90 90 80 3 326 135 85 22 319 142 115 118 123 123 123
140 132 127 129 127 129 124 122 122 126 130 130 138 138 141 144 150 152 143 133 134 128 118 112 104 98 95 104 110 108 237 269 290 93 130 177 234 257 141 130 132 133 149
136 124 132 132 129 131 123 121 124 123 125 129 131 137 145 157 164 162 154 156 154 149 135 119 111 111 112 117 135 192 254 263 2 125 150 189 201 204 179 169 148 141 141
109 124 133 132 133 129 119 123 124 131 130 129 128 137 136 144 154 151 159 156 158 149 134 131 123 137 164 169 191 215 251 265 241 223 173 174 179 190 162 169 138 141 150
125 127 134 138 136 129 126 125 129 140 131 135 136 123 133 134 138 150 156 163 150 150 149 154 157 180 210 198 193 202 236 287 346 306 140 160 155 151 156 145 149 151 157
120 126 144 148 136 129 135 128 137 139 137 140 132 136 138 141 146 152 155 160 165 165 175 192 199 232 236 231 217 217 240 255 192 273 128 132 145 147 154 164 167 168 166
123 142 146 144 146 151 150 139 145 144 144 143 145 151 156 161 166 165 170 173 174 180 201 225 240 256 264 250 238 226 240 267 249 159 272 139 149 156 160 169 172 175 173
125 128 159 144 148 186 135 145 149 157 154 155 158 173 180 193 185 164 179 167 186 204 218 231 244 266 283 275 262 264 266 249 320 324 146 150 151 155 163 171 181 186 184
143 151 193 138 152 181 152 152 169 167 171 188 182 173 214 255 191 165 165 185 201 221 231 241 324 322 278 276 217 352 263 241 219 189 136 156 151 157 166 175 183 191 197
153 164 164 153 154 184 151 168 177 175 163 175 154 200 174 199 185 171 164 197 209 223 232 214 181 239 226 235 230 183 163 348 345 165 158 159 155 162 172 182 192 200 198
176 169 160 164 183 192 170 135 182 125 157 165 179 229 231 212 222 232 169 195 204 203 215 209 349 231 242 238 222 206 132 192 247 234 166 162 159 167 174 186 192 196 206
157 173 173 173 182 191 271 142 138 165 180 221 179 196 200 258 214 329 314 314 216 178 318 100 227 242 36 345 295 259 157 179 201 163 155 164 160 173 183 188 194 195 202
180 171 192 172 170 157 183 132 156 161 177 174 194 207 160 258 206 185 219 257 253 81 319 275 206 166 81 300 357 306 291 142 128 141 153 160 172 175 191 202 204 204 205
185 180 176 197 156 158 138 142 163 199 153 263 174 121 176 274 211 332 252 246 252 155 202 71 307 82 136 180 217 300 295 114 125 193 88 137 170 192 187 194 203 206 209
186 174 173 218 153 159 180 171 190 208 147 199 165 146 197 255 261 238 281 263 320 266 46 32 313 278 160 176 185 224 267 228 74 152 150 182 163 193 199 198 196 205 209
173 169 181 191 165 160 185 175 196 229 166 171 313 150 181 223 252 261 302 257 80 7 122 144 305 306 307 187 222 237 189 118 147 265 309 203 187 161 172 195 202 202 207
176 178 189 172 151 158 166 170 199 199 152 177 186 188 178 204 245 234 246 283 311 58 341 133 228 314 305 301 39 339 10 41 22 61 323 321 258 156 164 179 194 210 207
174 172 189 156 152 152 152 180 193 221 177 194 205 153 179 221 228 254 274 329 273 103 258 12 334 318 308 15 50 3 12 34 58 78 219 225 292 156 164 178 188 197 201
170 177 176 169 157 162 171 186 192 206 202 190 191 175 169 218 244 254 161 273 295 71 22 322 7 304 325 325 323 88 62 356 354 288 296 267 153 71 353 241 182 196 187
172 180 176 167 167 181 169 182 198 194 209 167 202 177 178 184 235 261 258 252 308 64 136 261 254 277 306 291 5 109 120 138 213 301 271 305 148 103 205 249 197 174 188
170 176 180 177 175 179 188 190 177 189 202 204 181 193 193 189 214 235 244 264 227 300 314 249 354 325 314 331 349 19 53 178 195 228 312 245 266 180 208 182 156 207 201
171 179 175 176 173 181 193 199 184 195 209 208 175 185 203 191 199 221 222 239 231 247 262 8 54 344 304 314 357 349 257 297 239 2 288 232 294 187 195 175 190 173 177
179 172 170 174 180 185 188 185 184 193 227 215 214 179 210 181 196 211 229 219 226 245 272 75 144 215 283 317 349 329 333 333 354 277 330 340 333 293 64 100 3 151 165